Temp
74 78 79 79 79 79 79 79 79 78 79 79 79 79 78 78 78 78 78 79 79 78 79 79 79 80 80 79 78 77 77 77 77 76 75 75 77 77 78 77 76 77 78
78 81 78 79 79 79 79 78 78 78 78 78 79 79 78 78 78 78 78 78 79 79 80 80 80 79 78 78 77 77 76 76 76 74 74 73 74 77 78 77 76 77 77
81 82 79 78 78 78 78 78 78 78 78 78 78 78 78 78 78 79 79 79 79 79 80 80 79 78 77 77 76 76 76 76 75 74 75 72 73 77 77 76 77 78 77
84 82 80 78 78 78 78 78 78 78 78 78 78 79 79 79 79 79 79 79 78 79 79 79 78 77 76 76 76 76 76 75 75 74 76 78 77 77 76 76 76 76 76
79 78 79 78 78 78 78 78 78 78 78 78 78 77 78 78 78 78 78 77 77 77 77 77 77 76 76 76 76 76 75 75 73 74 76 75 72 77 78 77 77 77 76
77 78 76 77 78 77 77 78 78 78 78 78 78 77 77 77 77 78 77 77 76 76 76 76 76 75 75 75 75 75 75 74 73 75 76 75 72 77 76 77 76 76 76
75 76 76 76 76 77 77 77 77 78 78 78 78 78 78 78 77 77 76 76 76 76 76 75 75 75 75 75 75 75 74 72 71 73 75 74 74 77 77 76 76 75 76
73 75 76 76 76 75 76 75 76 77 77 78 77 77 77 77 77 77 76 75 76 76 76 76 75 75 74 74 75 74 73 71 74 73 75 73 75 77 76 76 76 76 75
72 74 73 73 75 76 74 74 75 76 76 77 77 76 75 75 75 76 75 75 76 75 75 75 74 74 74 74 74 73 71 70 66 74 76 69 74 76 76 75 75 75 75
71 71 70 70 71 71 72 72 73 73 74 74 74 73 72 72 73 74 74 74 74 75 74 74 74 73 73 73 73 71 70 69 69 72 70 70 74 75 76 75 74 74 74
70 70 69 68 69 70 71 73 71 71 71 71 71 70 70 70 72 72 70 72 73 73 73 73 73 73 71 70 71 70 69 65 70 72 68 72 74 76 75 74 74 73 72
61 66 67 66 67 68 74 70 70 74 69 69 71 71 70 71 71 73 69 69 71 72 71 73 72 71 69 64 63 67 63 66 73 71 68 72 75 75 75 74 73 72 72
63 64 66 66 65 66 66 65 65 67 68 70 70 70 70 69 68 68 67 68 68 68 70 70 67 65 62 64 63 63 65 68 73 70 69 71 74 75 74 73 72 72 71
61 62 64 65 64 64 63 64 65 66 67 67 69 70 67 66 66 66 66 66 68 68 67 66 65 66 64 66 66 65 67 73 72 69 66 67 70 74 74 73 72 71 71
63 63 62 63 62 64 64 62 64 65 66 67 68 69 67 66 65 65 66 66 67 67 67 66 67 69 70 69 69 69 72 73 68 68 64 66 69 71 72 72 72 71 71
64 62 63 63 63 63 62 62 62 63 65 65 65 67 69 65 64 64 63 62 63 66 65 65 66 67 66 69 68 72 71 68 67 65 64 65 68 70 71 72 72 71 71
63 63 63 63 64 63 63 62 62 62 65 63 65 67 68 66 63 62 62 60 60 62 62 61 61 66 66 68 66 67 65 65 64 63 63 64 65 66 70 71 71 71 70
64 63 63 67 63 62 62 61 62 62 61 62 64 64 67 66 63 60 59 59 60 61 60 59 59 59 60 62 62 62 63 62 62 62 62 61 62 63 67 69 70 70 70
63 64 63 63 62 62 62 61 61 62 61 61 62 63 66 66 63 60 62 58 61 61 59 59 58 60 59 58 58 59 59 58 59 61 60 59 60 61 61 66 67 67 68
63 63 62 63 62 62 60 59 59 59 60 60 60 62 65 64 64 60 61 59 62 60 58 58 58 58 59 58 57 54 55 56 57 57 59 61 59 60 61 61 60 62 66
62 62 61 60 60 59 56 55 55 55 57 58 59 61 62 63 64 61 59 59 60 60 59 59 58 58 57 55 52 51 52 56 56 56 58 57 59 60 61 60 59 56 60
60 60 59 59 59 58 56 56 55 55 56 57 58 59 60 61 62 61 60 61 60 59 59 59 59 57 55 55 52 50 47 49 53 56 57 59 58 59 60 61 59 57 53
58 57 59 58 58 57 58 56 56 55 54 54 55 56 58 60 60 60 59 61 60 59 58 57 58 57 53 54 56 52 46 45 47 50 52 55 56 56 56 55 58 54 51
57 56 57 57 57 58 57 55 53 51 51 53 54 56 57 59 58 61 60 61 60 59 58 57 58 57 56 53 53 58 56 52 45 43 48 49 54 55 54 55 53 53 51
57 54 54 55 56 57 56 55 53 52 52 53 56 54 55 56 58 59 62 60 59 59 59 58 57 57 57 55 54 51 52 53 52 47 41 44 49 51 52 52 51 50 51
55 54 53 54 55 56 55 57 57 57 53 54 55 55 54 54 55 58 60 60 59 59 58 59 58 58 57 57 55 53 53 50 51 49 42 41 42 44 48 49 49 49 48
MSLP
1011.67 1011.50 1011.64 1011.97 1012.25 1012.43 1012.61 1012.76 1012.89 1013.11 1013.36 1013.50 1013.70 1013.95 1014.15 1014.31 1014.51 1014.68 1014.82 1014.88 1015.04 1015.16 1015.33 1015.50 1015.72 1015.94 1016.07 1016.28 1016.48 1016.62 1016.68 1016.79 1016.84 1016.93 1017.03 1017.00 1017.20 1017.21 1017.19 1017.23 1017.14 1017.17 1017.18
1011.18 1011.37 1011.66 1011.97 1012.26 1012.45 1012.64 1012.92 1013.11 1013.29 1013.47 1013.64 1013.85 1014.08 1014.27 1014.47 1014.63 1014.83 1014.94 1015.12 1015.16 1015.30 1015.45 1015.64 1015.88 1016.14 1016.39 1016.60 1016.78 1016.87 1016.99 1017.13 1017.12 1017.26 1017.26 1017.40 1017.49 1017.41 1017.35 1017.40 1017.51 1017.51 1017.61
1010.60 1011.00 1011.64 1011.92 1012.31 1012.64 1012.78 1012.97 1013.19 1013.42 1013.55 1013.81 1014.00 1014.23 1014.44 1014.60 1014.75 1014.94 1015.07 1015.14 1015.35 1015.46 1015.61 1015.87 1016.13 1016.39 1016.62 1016.82 1017.04 1017.15 1017.24 1017.28 1017.35 1017.35 1017.32 1017.49 1017.86 1017.76 1017.64 1017.67 1017.76 1017.86 1017.95
1010.34 1011.02 1011.45 1012.08 1012.42 1012.69 1012.92 1013.10 1013.27 1013.52 1013.64 1013.87 1014.10 1014.30 1014.44 1014.65 1014.84 1015.02 1015.19 1015.31 1015.52 1015.64 1015.79 1016.04 1016.34 1016.61 1016.85 1017.05 1017.14 1017.33 1017.43 1017.43 1017.62 1017.66 1017.50 1017.57 1017.86 1018.05 1017.97 1017.92 1018.02 1018.16 1018.29
1011.14 1011.42 1011.66 1012.00 1012.39 1012.71 1012.90 1013.07 1013.26 1013.51 1013.67 1013.86 1014.17 1014.46 1014.57 1014.72 1014.80 1015.06 1015.28 1015.42 1015.66 1015.84 1016.01 1016.15 1016.44 1016.84 1017.01 1017.20 1017.29 1017.43 1017.59 1017.66 1017.66 1017.74 1017.62 1017.73 1018.01 1018.26 1018.24 1018.21 1018.33 1018.37 1018.50
1011.68 1011.84 1012.25 1012.40 1012.55 1012.76 1012.97 1013.10 1013.16 1013.41 1013.64 1013.85 1014.09 1014.39 1014.62 1014.75 1014.94 1015.06 1015.28 1015.43 1015.67 1015.86 1016.04 1016.25 1016.57 1016.91 1017.14 1017.34 1017.45 1017.55 1017.66 1017.74 1017.75 1017.59 1017.72 1017.99 1018.22 1018.47 1018.54 1018.55 1018.59 1018.63 1018.75
1012.38 1012.34 1012.50 1012.56 1012.60 1012.82 1013.00 1013.11 1013.30 1013.39 1013.58 1013.78 1014.02 1014.30 1014.58 1014.72 1014.92 1015.03 1015.28 1015.44 1015.64 1015.91 1016.15 1016.43 1016.70 1017.02 1017.25 1017.45 1017.58 1017.65 1017.74 1017.85 1017.89 1017.82 1017.83 1018.09 1018.30 1018.61 1018.77 1018.88 1019.00 1019.10 1019.13
1012.51 1012.49 1012.54 1012.68 1012.73 1012.81 1012.83 1013.03 1013.18 1013.32 1013.41 1013.60 1013.84 1014.12 1014.45 1014.70 1014.84 1014.97 1015.20 1015.40 1015.61 1015.88 1016.17 1016.51 1016.85 1017.13 1017.35 1017.52 1017.66 1017.79 1017.81 1017.93 1017.79 1017.75 1017.81 1018.25 1018.38 1018.68 1018.99 1019.12 1019.21 1019.36 1019.50
1012.45 1012.65 1012.71 1012.76 1012.80 1012.68 1012.81 1012.87 1013.03 1013.19 1013.34 1013.48 1013.69 1013.97 1014.26 1014.54 1014.75 1014.90 1015.14 1015.35 1015.53 1015.82 1016.15 1016.50 1016.90 1017.21 1017.44 1017.55 1017.67 1017.84 1017.92 1017.92 1018.03 1017.68 1017.82 1018.20 1018.41 1018.77 1019.00 1019.33 1019.50 1019.65 1019.80
1012.51 1012.67 1012.83 1012.98 1012.91 1012.86 1012.79 1012.82 1012.92 1013.03 1013.15 1013.39 1013.59 1013.85 1014.09 1014.28 1014.57 1014.79 1015.06 1015.28 1015.53 1015.73 1016.12 1016.51 1016.87 1017.18 1017.40 1017.55 1017.69 1017.75 1017.85 1017.91 1017.95 1017.82 1017.83 1018.21 1018.47 1018.97 1019.23 1019.61 1019.86 1020.06 1020.23
1012.70 1012.74 1012.88 1013.07 1013.06 1012.97 1012.90 1012.81 1012.82 1012.89 1013.02 1013.18 1013.46 1013.75 1013.97 1014.15 1014.28 1014.47 1014.83 1015.14 1015.42 1015.65 1015.94 1016.37 1016.83 1017.14 1017.33 1017.53 1017.66 1017.74 1017.74 1017.83 1017.76 1017.66 1017.81 1018.10 1018.45 1018.83 1019.27 1019.72 1020.08 1020.36 1020.62
1012.92 1012.98 1013.03 1013.11 1013.10 1013.11 1012.90 1012.76 1012.67 1012.58 1012.75 1012.96 1013.19 1013.48 1013.73 1013.90 1013.96 1014.11 1014.44 1014.83 1015.16 1015.48 1015.75 1016.13 1016.70 1017.07 1017.33 1017.56 1017.71 1017.78 1017.70 1017.51 1017.43 1017.71 1017.86 1018.06 1018.38 1018.75 1019.28 1019.77 1020.20 1020.64 1020.98
1012.87 1013.12 1013.20 1013.25 1013.16 1013.17 1013.18 1013.05 1012.93 1012.73 1012.60 1012.59 1012.87 1013.13 1013.40 1013.61 1013.82 1013.97 1014.28 1014.64 1015.05 1015.43 1015.78 1016.00 1016.62 1017.05 1017.25 1017.34 1017.51 1017.71 1017.51 1017.27 1017.17 1017.43 1017.91 1018.09 1018.27 1018.69 1019.34 1019.90 1020.31 1020.69 1021.07
1012.97 1013.14 1013.33 1013.42 1013.40 1013.30 1013.34 1013.28 1013.14 1012.99 1012.73 1012.73 1012.70 1012.75 1013.16 1013.53 1013.81 1013.94 1014.18 1014.45 1014.75 1015.08 1015.49 1015.94 1016.50 1016.84 1016.78 1016.84 1016.95 1017.20 1017.23 1017.03 1016.82 1017.49 1018.14 1018.45 1018.70 1018.80 1019.60 1020.06 1020.51 1020.87 1021.26
1012.95 1013.22 1013.41 1013.50 1013.55 1013.46 1013.56 1013.48 1013.34 1013.20 1012.97 1012.80 1012.72 1012.72 1012.92 1013.30 1013.75 1013.79 1014.05 1014.39 1014.67 1014.75 1015.11 1015.41 1015.84 1016.28 1016.32 1016.25 1016.48 1016.62 1016.71 1016.69 1017.17 1017.62 1018.38 1018.63 1019.15 1019.24 1019.67 1020.19 1020.68 1020.98 1021.37
1013.10 1013.43 1013.51 1013.62 1013.70 1013.59 1013.67 1013.67 1013.56 1013.35 1013.14 1012.95 1012.82 1012.76 1012.80 1013.11 1013.39 1013.77 1014.35 1014.62 1014.68 1014.55 1014.48 1014.98 1015.14 1015.63 1016.30 1016.21 1016.30 1016.24 1016.41 1016.96 1017.43 1018.10 1018.58 1019.16 1019.40 1019.64 1019.87 1020.26 1020.73 1021.00 1021.31
1013.30 1013.47 1013.60 1013.66 1013.68 1013.71 1013.73 1013.68 1013.51 1013.37 1013.12 1013.13 1012.98 1012.75 1012.73 1012.98 1013.45 1013.80 1014.56 1014.87 1014.77 1014.91 1015.27 1015.37 1016.10 1015.43 1016.20 1016.37 1016.86 1016.86 1017.18 1017.61 1017.89 1018.32 1018.90 1019.48 1019.87 1020.04 1020.03 1020.39 1020.94 1021.20 1021.44
1013.30 1013.54 1013.57 1013.68 1013.72 1013.76 1013.77 1013.66 1013.43 1013.30 1013.23 1013.10 1012.92 1012.75 1012.62 1012.80 1013.22 1013.70 1014.36 1014.71 1014.83 1015.00 1015.52 1015.72 1016.76 1015.97 1017.05 1016.49 1017.14 1017.99 1018.24 1018.58 1018.75 1018.79 1019.20 1020.01 1020.03 1020.31 1020.26 1020.61 1020.98 1021.45 1021.67
1013.12 1013.30 1013.53 1013.58 1013.64 1013.66 1013.63 1013.52 1013.32 1013.06 1013.01 1012.84 1012.73 1012.59 1012.42 1012.52 1013.03 1013.50 1014.15 1014.50 1014.63 1014.99 1015.52 1016.40 1016.50 1016.31 1016.97 1016.90 1017.48 1018.29 1018.70 1019.92 1019.47 1019.43 1019.53 1019.99 1020.48 1020.78 1020.92 1020.98 1021.25 1021.49 1021.96
1013.19 1013.26 1013.40 1013.52 1013.58 1013.54 1013.49 1013.44 1013.30 1013.07 1012.80 1012.54 1012.48 1012.38 1012.25 1012.18 1012.57 1013.16 1013.86 1014.21 1014.32 1014.95 1015.36 1015.79 1016.23 1016.59 1017.05 1017.29 1017.79 1018.61 1018.98 1019.79 1020.25 1020.20 1020.25 1020.05 1020.74 1021.08 1021.05 1021.48 1021.74 1021.63 1022.18
1013.43 1013.43 1013.42 1013.54 1013.53 1013.52 1013.55 1013.61 1013.44 1013.20 1012.84 1012.57 1012.37 1012.03 1012.09 1012.14 1011.99 1012.55 1013.34 1013.98 1014.25 1014.51 1014.98 1015.49 1016.07 1016.51 1017.12 1017.51 1018.03 1019.36 1020.08 1019.75 1020.42 1020.62 1020.70 1020.49 1020.89 1021.30 1020.94 1021.84 1022.24 1022.39 1022.48
1013.33 1013.35 1013.46 1013.41 1013.41 1013.39 1013.40 1013.40 1013.29 1013.08 1012.85 1012.64 1012.31 1012.00 1011.76 1011.85 1012.05 1012.05 1012.60 1013.27 1013.89 1014.31 1014.72 1015.22 1015.60 1016.34 1016.82 1017.31 1017.92 1018.73 1019.95 1020.77 1020.86 1020.42 1020.79 1021.01 1021.06 1021.17 1021.40 1021.77 1022.43 1022.75 1023.07
1013.29 1013.27 1013.25 1013.23 1013.19 1013.13 1013.16 1013.09 1013.02 1012.89 1012.78 1012.71 1012.40 1011.92 1011.63 1011.55 1011.67 1011.95 1012.30 1012.70 1013.40 1013.89 1014.32 1014.61 1015.09 1015.49 1016.19 1017.21 1017.19 1017.26 1018.87 1019.48 1020.96 1021.26 1021.10 1021.33 1021.30 1021.28 1021.60 1022.03 1022.47 1022.94 1023.33
1013.27 1013.27 1013.23 1013.22 1013.07 1012.87 1012.78 1012.85 1012.98 1012.96 1012.87 1012.56 1012.38 1011.91 1011.54 1011.21 1011.40 1011.45 1011.94 1012.16 1012.83 1013.37 1013.70 1014.22 1014.60 1015.14 1015.30 1016.13 1017.18 1016.51 1016.75 1017.77 1019.66 1021.38 1021.93 1021.74 1021.26 1021.23 1021.62 1022.16 1022.72 1023.20 1023.54
1013.24 1013.37 1013.33 1013.15 1012.95 1012.63 1012.44 1012.41 1012.54 1012.50 1012.44 1012.19 1011.92 1011.68 1011.47 1011.23 1010.97 1011.06 1011.16 1011.84 1012.27 1012.79 1013.19 1013.60 1014.13 1014.64 1015.07 1015.77 1016.10 1016.56 1017.13 1017.60 1018.22 1019.53 1020.98 1021.62 1022.19 1021.66 1021.41 1021.99 1022.84 1023.49 1023.75
1013.25 1013.26 1013.25 1013.05 1012.74 1012.32 1012.03 1011.84 1011.79 1011.81 1011.73 1011.73 1011.45 1011.33 1011.37 1011.21 1010.92 1010.61 1010.68 1011.15 1011.79 1012.05 1012.61 1012.96 1013.53 1013.88 1014.50 1015.06 1015.68 1015.95 1016.60 1017.01 1017.49 1018.29 1020.17 1021.61 1022.05 1022.36 1022.33 1022.41 1022.88 1023.37 1023.65
Wind_Speed
2 8 12 12 11 10 4 5 7 7 9 8 8 8 8 8 8 7 7 9 7 9 13 14 13 13 11 12 13 12 13 13 13 14 11 13 10 8 6 5 12 9 14
6 9 11 12 11 10 8 3 5 4 7 7 6 6 7 8 8 7 6 8 9 11 12 11 12 12 13 12 11 12 12 10 11 10 12 13 11 10 9 14 12 12 15
2 8 10 11 10 8 9 7 3 2 6 8 7 7 7 7 8 8 7 6 8 10 11 11 11 12 12 12 11 11 10 7 6 8 10 7 6 11 10 11 12 14 14
8 9 11 9 7 9 7 8 7 3 4 5 6 7 7 7 7 8 9 9 8 9 11 12 11 10 11 10 11 10 7 4 2 2 3 6 9 9 10 13 14 16 15
9 9 8 9 7 6 8 8 9 7 6 3 2 6 6 6 7 7 8 8 7 8 9 11 13 10 10 9 10 9 6 3 1 4 4 6 6 7 8 12 13 14 14
9 9 7 5 4 2 2 5 6 9 7 6 3 4 7 7 8 8 8 6 7 9 12 12 13 10 9 8 9 9 6 4 3 2 6 10 7 9 12 14 13 13 13
8 7 7 7 4 2 5 4 5 5 8 8 4 5 6 6 6 6 6 6 9 11 12 12 12 10 9 8 8 7 5 2 3 2 5 7 7 11 13 15 15 15 14
5 5 5 6 5 4 5 6 7 7 9 9 7 5 5 7 8 7 6 8 12 14 13 12 11 10 9 8 7 6 4 4 4 2 2 6 10 13 13 13 14 15 16
5 4 5 5 4 5 3 8 8 8 7 8 7 7 6 5 6 8 8 11 13 13 13 13 11 9 8 8 6 5 5 6 4 3 7 5 9 13 14 13 13 13 14
3 2 4 4 4 4 5 6 7 8 9 8 6 6 7 7 8 9 8 10 12 12 11 10 10 9 8 7 6 6 7 8 4 4 6 5 14 15 15 14 13 13 12
4 3 5 4 5 4 3 1 5 8 10 8 5 6 6 4 6 7 8 10 12 13 13 11 10 9 7 6 6 7 8 3 5 3 4 13 16 18 17 15 15 15 14
3 5 4 4 2 4 4 4 3 4 5 5 5 5 4 5 5 6 8 11 13 13 13 13 10 8 7 4 3 5 3 5 4 5 4 12 18 19 18 17 16 15 15
4 4 5 5 5 2 4 3 3 3 2 4 6 5 4 4 4 3 3 5 5 8 6 7 6 4 6 4 5 4 6 6 3 5 6 11 18 20 19 17 17 16 16
2 1 4 5 4 4 3 3 3 3 3 2 2 6 4 2 4 4 3 4 5 6 7 6 4 6 7 7 8 7 7 5 3 5 8 13 16 21 18 18 16 16 15
6 5 4 4 4 4 3 3 4 4 4 4 3 4 4 4 2 2 4 4 5 7 5 8 6 7 7 6 7 7 7 5 8 6 5 17 13 17 18 17 16 16 15
7 5 4 5 4 4 3 4 3 4 5 4 4 3 4 3 4 3 2 1 1 5 3 2 5 6 4 3 4 4 3 8 9 9 6 6 13 14 17 17 16 17 16
7 6 5 4 2 2 3 4 3 3 3 4 4 5 4 4 5 5 2 1 2 4 5 5 6 5 3 3 5 7 8 9 8 8 7 5 7 9 15 17 16 16 16
6 6 4 4 5 5 4 3 3 4 3 4 4 4 5 4 7 5 4 4 4 5 6 6 4 6 3 4 6 7 7 7 8 9 7 4 3 2 7 14 15 14 14
4 3 4 4 3 4 4 4 5 5 4 4 4 4 5 5 7 5 4 4 6 6 8 7 4 6 4 7 8 6 7 4 5 6 8 6 5 3 3 8 10 12 12
2 3 2 3 3 5 4 4 4 4 5 4 4 4 5 5 7 7 6 6 8 6 6 7 8 5 7 7 9 8 6 5 4 4 5 6 5 4 6 6 3 6 12
4 2 3 4 5 3 2 3 4 4 4 3 4 7 7 5 7 7 7 7 7 8 7 10 9 10 4 9 7 7 3 6 5 4 3 4 5 4 7 5 4 4 4
5 4 4 5 5 4 2 3 3 3 4 4 4 5 6 6 5 6 8 7 8 7 10 11 12 7 3 7 6 4 4 2 1 3 2 4 4 3 4 6 8 7 6
6 5 5 5 5 5 6 3 3 3 3 4 5 4 5 7 6 5 6 7 9 8 8 11 12 15 7 8 11 5 4 4 4 3 3 4 5 4 4 5 7 7 7
6 5 6 6 7 6 6 3 5 4 4 4 4 4 5 7 7 6 6 10 10 8 10 11 11 11 7 11 8 1 2 7 5 5 1 2 1 6 6 4 5 5 6
6 5 6 7 8 7 6 5 5 6 4 4 5 6 6 6 8 9 11 9 11 9 10 13 14 13 9 9 6 4 2 5 6 4 4 3 1 0 4 5 5 4 5
6 6 7 8 8 8 7 8 8 8 7 6 7 6 5 6 4 9 11 11 10 11 11 11 13 15 11 11 6 3 5 4 4 4 4 3 3 2 3 4 5 4 4
Wind_Direction
68 147 145 140 143 140 139 118 131 126 152 157 152 146 144 133 130 126 118 143 130 133 131 124 125 108 110 99 90 89 84 83 81 81 75 90 75 77 62 78 86 89 93
174 164 147 149 154 149 146 122 116 142 132 147 157 159 157 142 143 146 148 145 140 129 123 121 110 116 107 104 98 98 97 102 106 106 97 71 55 57 66 88 87 86 86
134 147 154 149 157 162 158 149 148 197 158 160 154 162 163 154 159 160 164 160 144 135 130 128 125 119 115 114 111 108 109 113 124 143 129 99 66 62 75 101 108 98 91
121 139 143 144 153 160 166 168 163 242 254 169 174 182 175 174 174 180 180 177 163 153 145 134 129 122 126 126 120 117 118 140 109 22 331 117 89 70 72 90 94 97 89
54 72 77 135 156 163 180 192 167 195 226 203 218 224 197 202 192 195 199 191 169 167 164 143 127 132 129 132 130 132 139 175 269 328 84 69 94 86 93 87 81 85 90
55 60 63 69 127 172 254 242 195 185 206 220 230 204 204 219 213 200 207 173 170 171 161 139 135 140 140 140 138 141 154 191 256 43 76 84 89 93 99 95 90 93 95
59 41 79 55 33 250 236 255 238 214 206 213 227 224 204 223 228 209 196 176 165 158 158 145 144 146 147 151 153 153 170 199 303 344 97 109 105 111 104 102 96 92 88
45 23 82 95 61 11 250 235 253 243 243 227 218 208 228 229 232 229 207 176 162 163 159 154 153 156 158 161 164 173 186 215 223 254 151 128 133 132 122 108 100 94 90
42 29 14 46 360 323 257 221 228 249 270 262 234 213 211 240 244 240 207 181 168 172 169 162 160 166 171 173 171 175 232 226 251 236 144 133 151 141 126 118 113 109 100
330 32 55 12 325 2 347 222 228 233 242 255 267 213 208 225 233 230 214 194 177 161 157 158 166 176 178 181 177 181 231 261 250 263 98 133 138 146 125 120 115 113 113
355 344 62 24 355 334 317 221 212 222 229 242 246 238 222 220 216 211 193 191 184 176 165 166 177 182 176 174 179 199 226 235 237 212 121 143 147 148 132 126 120 114 112
296 323 3 352 355 346 309 301 290 294 192 204 213 216 212 223 206 203 194 189 188 185 170 163 179 176 172 175 187 203 232 235 226 128 130 148 156 148 135 132 125 119 116
22 16 353 344 334 345 326 343 336 306 291 182 193 208 218 235 257 193 172 178 174 164 162 153 157 167 200 205 165 191 232 245 203 111 125 156 161 143 138 133 130 127 123
70 16 10 342 328 315 327 309 281 303 313 330 223 210 182 216 243 237 196 175 176 170 168 164 165 199 218 209 167 196 216 234 159 118 125 105 160 133 135 134 133 131 126
68 47 38 14 338 317 323 318 322 311 312 301 275 268 165 182 213 244 224 185 199 180 178 171 174 202 217 201 171 196 215 185 93 113 123 129 131 134 136 137 138 132 129
78 65 49 37 11 347 323 303 298 311 311 322 317 306 327 144 119 65 72 135 76 241 156 189 196 167 204 186 185 202 120 78 92 98 110 118 129 136 138 139 142 139 134
98 78 95 98 68 359 319 317 315 284 295 300 297 286 274 137 125 114 108 276 154 95 110 68 328 78 146 86 59 67 75 76 87 100 98 105 129 153 146 144 146 141 139
107 113 97 47 37 18 348 322 298 294 284 269 268 270 253 145 142 137 167 177 154 120 133 144 172 98 2 67 81 58 63 73 90 90 93 81 94 101 137 145 148 147 145
95 85 36 22 23 326 300 301 284 267 263 257 266 259 244 178 155 145 183 188 170 150 143 150 145 143 149 113 105 96 78 34 73 92 90 89 76 106 97 133 144 137 146
356 51 346 320 312 292 302 287 282 269 250 232 245 273 277 194 169 154 186 182 180 164 151 147 156 164 170 145 113 94 107 107 69 74 107 109 105 84 91 83 78 127 149
269 290 308 352 316 326 295 299 293 271 293 286 233 223 254 253 193 174 165 174 181 172 170 169 160 176 141 129 98 94 67 83 100 99 117 95 118 142 113 101 73 60 94
260 287 334 316 320 305 284 261 263 275 284 282 288 246 224 244 249 181 171 176 183 185 178 177 176 172 102 175 141 115 137 95 88 118 100 126 139 128 140 135 126 105 83
300 279 296 299 294 295 288 287 288 290 297 285 278 277 221 217 227 220 185 178 188 192 190 178 180 185 157 198 176 134 151 157 136 348 127 175 169 130 111 96 120 114 116
309 318 336 319 299 285 280 284 273 258 266 253 281 286 275 212 209 203 210 190 188 191 190 189 185 186 168 181 193 197 130 131 174 148 216 308 200 140 127 115 101 113 113
329 331 316 304 293 288 276 260 253 254 250 259 270 287 284 278 205 207 213 201 190 190 192 182 186 191 182 182 200 135 132 145 130 138 145 182 311 64 125 132 126 107 120
322 326 304 296 282 282 270 259 249 266 242 249 250 250 266 285 270 214 208 211 208 190 190 189 187 188 178 187 179 162 165 164 152 131 113 123 134 51 79 112 136 145 134